Zurück zum Katalog

SL-16 DEB

AktivLEO
NORAD 39873·DEBRIS·🇷🇺 Russia

Gestartet Mar 26, 1993 von Baikonur Cosmodrome

Loading…

Nächste Überflüge (nächste 24 Stunden)

TLE

AktuellSource: Space-Track

Epoche: Sep 14, 2026, 14:42 UTC

1 39873U 93016AX  26257.61318835  .00002378  00000-0  65994-3 0  9992
2 39873  70.3911 331.7105 0079898  24.0338 336.4492 14.45812560638356

Verfolge SL-16 DEB in Echtzeit mit AllMySat

Download on the App Store